sat.trackr.live / text

‹ back to catalog

STARLINK-1770

NORAD 46383 · 2020-062BL

PAYLOAD ACTIVE UNKNOWN

§ Identity

Operator
Country
US
Launch date
2020-09-03
Launch site
AFETR
Launch vehicle
Mass (kg)
RCS (m²)

Purposes: comms

External: N2YO · Heavens-Above · Gunter

§ Orbital elements

Epoch: 2026-05-25T03:28:22.287360Z

Period
91.45 min
Inclination
53.0393°
Eccentricity
0.0003034
Mean motion
15.74652668 rev/d
Perigee alt
343.6 km
Apogee alt
347.7 km
Semi-major
6,723.8 km
B*
5.7300e-4
RAAN
297.8738°
Arg perigee
189.9062°
Mean anomaly
170.1897°
Rev number
31,717

§ Raw data

STARLINK-17701 46383U 20062BL  26145.14470240  .00085887  00000+0  57300-3 0  99972 46383  53.0393 297.8738 0003034 189.9062 170.1897 15.74652668317170

JSON: /api/v1/satellites/46383 · /tle

For live sub-satellite position, see the globe view (requires WebGL).

§ Visibility from observer

Set your observer location to see the next 7 days of passes ≥ 10°. The values pass through the URL so the page stays shareable.

No JS? Fill the form by hand. The geolocation button needs JavaScript.